Location: Firdgum
(53.2488°N, 5.5615°E)
Time: 03:18:13
(UTC+00:00)

Cosmos 1624 Rocket - Pass Details

Date: 08 December 2019
Orbit: 757 x 784 km, 74.0° (Epoch: 17 January)

Event Time Altitude Azimuth Distance (km) Brightness Sun altitude
Exits shadow 05:07:29 - 209° (SSW) 2,982 6.9 -21.2°
Reaches altitude 10° 05:09:10 10° 210° (SSW) 2,333 6.3 -21.0°
Maximum altitude 05:14:29 78° 297° (WNW) 807 3.9 -20.2°
Drops below altitude 10° 05:19:51 10° 24° (NNE) 2,355 6.7 -19.4°
Sets 05:22:16 0° 26° (NNE) 3,287 7.5 -19.0°
